Regional Weather Roundup
Issued by NWS Glasgow, MT

Home | Current Version | Previous Version | Text Only | Print | Product List | Glossary On
Versions: 1 2 3 4 5 6 7 8 9 10 11 12 13 14 15 16 17 18 19 20 21 22 23 24 25 26 27 28 29 30 31 32 33 34 35 36 37 38 39 40 41 42 43 44 45 46 47 48 49 50
000
ASUS45 KGGW 041715
RWRGGW
HOURLY REGIONAL WEATHER ROUNDUP FOR NORTHEAST MONTANA
NATIONAL WEATHER SERVICE GLASGOW MONTANA
1100 AM MDT TUE AUG 04 2015

NOTE: "FAIR" INDICATES FEW OR NO CLOUDS BELOW 12,000 FEET WITH NO
SIGNIFICANT WEATHER AND/OR OBSTRUCTIONS TO VISISBILITY.

NORTHEAST MONTANA


CITY           SKY/WX    TMP DP  RH WIND       PRES   REMARKS
GLASGOW        SUNNY     79  54  41 E18       29.86F
PLENTYWOOD       N/A     78  46  32 SE10G21     N/A
WOLF POINT     SUNNY     82  55  39 SE8       29.89F
JORDAN           N/A     87  54  32 S17       29.86F
WINNETT          N/A     85  39  19 W3G17       N/A
SIDNEY         SUNNY    N/A N/A N/A SE16      29.91F
GLENDIVE         N/A    N/A N/A N/A MISG        N/A
MALTA            N/A     85  56  37 S5G13       N/A

FORT PECK REPORTS


CITY           SKY/WX    TMP DP  RH WIND       PRES   REMARKS
FORT PECK        N/A     81  63  54 E12         N/A
THE PINES        N/A     82  54  37 SE3G12      N/A

SOUTHEAST MONTANA


CITY           SKY/WX    TMP DP  RH WIND       PRES   REMARKS
BILLINGS       CLOUDY    76  51  41 SW12      29.96R
MILES CITY     MOSUNNY   85  58  39 SE15G22   29.87F
BAKER          SUNNY     83  57  41 SE21G29   29.95F
LIVINGSTON     CLOUDY    72  50  45 W6        30.03R

CENTRAL MONTANA


CITY           SKY/WX    TMP DP  RH WIND       PRES   REMARKS
HAVRE          PTSUNNY   81  54  39 NW8       29.85S
LEWISTOWN      LGT RAIN  74  47  38 W16G25    30.01R
GREAT FALLS    CLOUDY    79  41  25 W9        29.93R
CUT BANK       CLOUDY    76  44  32 W16       29.95R
HELENA         PTSUNNY   79  45  29 W9        29.97S
BUTTE          MOSUNNY   73  46  38 VRB6      30.08F
BOZEMAN        CLOUDY    71  54  54 NW5       30.03S

WESTERN MONTANA


CITY           SKY/WX    TMP DP  RH WIND       PRES   REMARKS
MISSOULA       MOSUNNY   76  43  30 CALM      29.98F
KALISPELL      NOT AVBL

NORTH DAKOTA


CITY           SKY/WX    TMP DP  RH WIND       PRES   REMARKS
WILLISTON      SUNNY     82  48  30 SE13G22   29.94F
DICKINSON      SUNNY     78  59  51 SE12      29.97F
MINOT          SUNNY     78  49  35 SE8       30.00S
BISMARCK       SUNNY     80  56  43 SE10      29.99F

SOUTHERN SASKATCHEWAN


CITY           SKY/WX    TMP DP  RH WIND       PRES   REMARKS
REGINA         PTSUNNY   75  54  46 SE17      29.95F
MOOSE JAW      PTSUNNY   73  59  60 SE15G22   29.93F
ESTEVAN        PTSUNNY   77  52  41 SE13G21   29.98F
SWIFT CURRENT  PTSUNNY   75  57  53 SE22      29.85F




USA.gov is the U.S. government's official web portal to all federal, state and local government web resources and services.